STARLINK-34645 (64766 NORAD) Tracking and Keplerian Element Data

This shows tracking and keplerian element data for the satellite.

Feedback or suggestion? Click here.




ElementValue
Catalog64766
NameSTARLINK-34645
Epoch Orbit2654
Epoch Day353.98460279
Epoch Year2025
RAAN253.3228
Inclination53.1603
Eccentricity0.0003788
Argument of Perigee92.1131
Mean Anonmoly268.0303
Mean Motion15.30187865
Decay Rate0.00019607
L11 64766U 25147M 25353.98460279 .00019607 00000+0 67257-3 0 9993
L22 64766 53.1603 253.3228 0003788 92.1131 268.0303 15.30187865 26540



Live tracking and technical data element details for STARLINK-34645 (NORAD 64766). STARLINK-34645 can be tracked NOW for your location showing map with azimuth and elevation plus other details from your city location.







IsCatalogInMostPopularTable: catalog: 64766, numindb: 3
Update: records affected: 1



GetName: 64766 STARLINK-34645

Hit Count: updated at: Tue, 10 Feb 2026 02:50:30 GMT